| time (UTC) | temp C | wind direction | speed KPH | gust KPH | rain 1hr cm | rain 24hr cm | rain mn cm | humidity % | barometer mb |
| 20260901211541 | 27 | 171 | 11.3 | 27.4 | 0.00 | 0.00 | 0.00 | 22 | 1011.1 |
| 20260901210054 | 27 | 182 | 19.3 | 25.7 | 0.00 | 0.00 | 0.00 | 21 | 1011.2 |
| 20260901204544 | 27 | 133 | 12.9 | 24.1 | 0.00 | 0.00 | 0.00 | 22 | 1011.2 |
| 20260901203047 | 27 | 164 | 16.1 | 27.4 | 0.00 | 0.00 | 0.00 | 23 | 1011.4 |
| 20260901201544 | 27 | 154 | 6.4 | 20.9 | 0.00 | 0.00 | 0.00 | 23 | 1011.5 |
| 20260901200044 | 26 | 77 | 9.7 | 19.3 | 0.00 | 0.00 | 0.00 | 24 | 1011.7 |
| 20260901194551 | 26 | 129 | 14.5 | 30.6 | 0.00 | 0.00 | 0.00 | 23 | 1011.9 |
| 20260901193047 | 26 | 139 | 14.5 | 25.7 | 0.00 | 0.00 | 0.00 | 24 | 1012.0 |
| 20260901191550 | 26 | 148 | 14.5 | 30.6 | 0.00 | 0.00 | 0.00 | 25 | 1012.2 |
| 20260901190050 | 25 | 103 | 8.0 | 27.4 | 0.00 | 0.00 | 0.00 | 27 | 1012.4 |
| 20260901184559 | 25 | 94 | 12.9 | 25.7 | 0.00 | 0.00 | 0.00 | 27 | 1012.5 |
| 20260901183102 | 24 | 152 | 9.7 | 29.0 | 0.00 | 0.00 | 0.00 | 29 | 1012.8 |
| 20260901181546 | 23 | 117 | 9.7 | 24.1 | 0.00 | 0.00 | 0.00 | 30 | 1013.0 |
| 20260901180045 | 23 | 145 | 9.7 | 22.5 | 0.00 | 0.00 | 0.00 | 30 | 1013.1 |
| 20260901174544 | 23 | 116 | 8.0 | 19.3 | 0.00 | 0.00 | 0.00 | 31 | 1013.3 |
| 20260901173048 | 22 | 170 | 9.7 | 17.7 | 0.00 | 0.00 | 0.00 | 32 | 1013.4 |
| 20260901171544 | 22 | 0 | 6.4 | 19.3 | 0.00 | 0.00 | 0.00 | 33 | 1013.6 |
| 20260901170045 | 21 | 96 | 9.7 | 19.3 | 0.00 | 0.00 | 0.00 | 35 | 1013.7 |
| 20260901164543 | 21 | 189 | 8.0 | 20.9 | 0.00 | 0.00 | 0.00 | 36 | 1013.7 |
| 20260901163056 | 21 | 152 | 6.4 | 22.5 | 0.00 | 0.00 | 0.00 | 37 | 1013.8 |
| 20260901161548 | 20 | 175 | 9.7 | 22.5 | 0.00 | 0.00 | 0.00 | 38 | 1013.9 |
| 20260901160044 | 20 | 100 | 8.0 | 19.3 | 0.00 | 0.00 | 0.00 | 40 | 1014.0 |
| 20260901154608 | 19 | 176 | 12.9 | 22.5 | 0.00 | 0.00 | 0.00 | 41 | 1014.0 |
| 20260901153052 | 18 | 127 | 4.8 | 17.7 | 0.00 | 0.00 | 0.00 | 43 | 1014.0 |
| 20260901151544 | 18 | 134 | 4.8 | 17.7 | 0.00 | 0.00 | 0.00 | 45 | 1014.0 |
| 20260901150054 | 16 | 56 | 4.8 | 11.3 | 0.00 | 0.00 | 0.00 | 51 | 1014.1 |
| 20260901144543 | 14 | 75 | 1.6 | 4.8 | 0.00 | 0.00 | 0.00 | 63 | 1014.1 |
| 20260901143046 | 12 | 75 | 1.6 | 4.8 | 0.00 | 0.00 | 0.00 | 67 | 1014.0 |
| 20260901141557 | 11 | 75 | 1.6 | 6.4 | 0.00 | 0.00 | 0.00 | 70 | 1013.9 |
| 20260901140051 | 10 | 75 | 1.6 | 4.8 | 0.00 | 0.00 | 0.00 | 73 | 1013.6 |
| 20260901134544 | 9 | 75 | 3.2 | 6.4 | 0.00 | 0.00 | 0.00 | 76 | 1013.6 |
| 20260901133050 | 8 | 70 | 4.8 | 8.0 | 0.00 | 0.00 | 0.00 | 74 | 1013.5 |
| 20260901131545 | 8 | 70 | 6.4 | 8.0 | 0.00 | 0.00 | 0.00 | 73 | 1013.6 |
| 20260901130043 | 9 | 70 | 3.2 | 4.8 | 0.00 | 0.00 | 0.00 | 71 | 1013.6 |
| 20260901124548 | 9 | 70 | 1.6 | 4.8 | 0.00 | 0.00 | 0.00 | 70 | 1013.6 |
| 20260901123049 | 10 | 0 | 0.0 | 3.2 | 0.00 | 0.00 | 0.00 | 68 | 1013.7 |
| 20260901121544 | 10 | 70 | 0.0 | 4.8 | 0.00 | 0.00 | 0.00 | 68 | 1013.7 |
| 20260901120051 | 11 | 340 | 0.0 | 3.2 | 0.00 | 0.00 | 0.00 | 65 | 1013.6 |
| 20260901114545 | 11 | 0 | 0.0 | 3.2 | 0.00 | 0.00 | 0.00 | 63 | 1013.7 |
| 20260901113055 | 11 | 0 | 0.0 | 3.2 | 0.00 | 0.00 | 0.00 | 62 | 1013.9 |
| 20260901111546 | 12 | 0 | 3.2 | 6.4 | 0.00 | 0.00 | 0.00 | 62 | 1013.9 |
| 20260901110050 | 12 | 334 | 3.2 | 11.3 | 0.00 | 0.00 | 0.00 | 60 | 1013.7 |
| 20260901104542 | 12 | 0 | 0.0 | 4.8 | 0.00 | 0.00 | 0.00 | 58 | 1013.9 |
| 20260901103059 | 13 | 62 | 0.0 | 3.2 | 0.00 | 0.00 | 0.00 | 58 | 1014.0 |
| 20260901101545 | 13 | 0 | 0.0 | 4.8 | 0.00 | 0.00 | 0.00 | 57 | 1013.9 |
| 20260901100046 | 13 | 62 | 3.2 | 6.4 | 0.00 | 0.00 | 0.00 | 56 | 1014.2 |
| 20260901094542 | 14 | 70 | 3.2 | 14.5 | 0.00 | 0.00 | 0.00 | 53 | 1014.1 |
| 20260901093051 | 15 | 193 | 1.6 | 9.7 | 0.00 | 0.00 | 0.00 | 52 | 1014.0 |
| 20260901091547 | 15 | 277 | 1.6 | 6.4 | 0.00 | 0.00 | 0.00 | 52 | 1014.1 |
| 20260901090050 | 14 | 169 | 4.8 | 9.7 | 0.00 | 0.00 | 0.00 | 53 | 1014.1 |
| 20260901084542 | 14 | 297 | 1.6 | 6.4 | 0.00 | 0.00 | 0.00 | 53 | 1014.1 |
| 20260901083046 | 14 | 297 | 3.2 | 6.4 | 0.00 | 0.00 | 0.00 | 52 | 1014.1 |
| 20260901081545 | 15 | 297 | 4.8 | 6.4 | 0.00 | 0.00 | 0.00 | 50 | 1014.2 |
| 20260901080056 | 15 | 249 | 3.2 | 8.0 | 0.00 | 0.00 | 0.00 | 49 | 1014.4 |
| 20260901074542 | 16 | 271 | 4.8 | 6.4 | 0.00 | 0.00 | 0.00 | 47 | 1014.5 |
| 20260901073044 | 16 | 214 | 4.8 | 20.9 | 0.00 | 0.00 | 0.00 | 46 | 1014.6 |
| 20260901071545 | 16 | 149 | 3.2 | 12.9 | 0.00 | 0.00 | 0.00 | 48 | 1014.4 |
| 20260901070048 | 15 | 0 | 0.0 | 6.4 | 0.00 | 0.00 | 0.00 | 48 | 1014.6 |
| 20260901064542 | 15 | 0 | 0.0 | 4.8 | 0.00 | 0.00 | 0.00 | 48 | 1014.7 |
| 20260901063053 | 16 | 173 | 8.0 | 16.1 | 0.00 | 0.00 | 0.00 | 47 | 1014.8 |
| 20260901061545 | 16 | 185 | 4.8 | 14.5 | 0.00 | 0.00 | 0.00 | 47 | 1014.7 |
| 20260901060045 | 15 | 203 | 3.2 | 11.3 | 0.00 | 0.00 | 0.00 | 47 | 1015.0 |
| 20260901054544 | 15 | 163 | 4.8 | 12.9 | 0.00 | 0.00 | 0.00 | 47 | 1014.9 |
| 20260901053055 | 15 | 351 | 1.6 | 4.8 | 0.00 | 0.00 | 0.00 | 49 | 1014.9 |
| 20260901051545 | 15 | 134 | 1.6 | 6.4 | 0.00 | 0.00 | 0.00 | 49 | 1014.9 |
| 20260901050045 | 15 | 0 | 0.0 | 3.2 | 0.00 | 0.00 | 0.00 | 50 | 1015.0 |
| 20260901044543 | 15 | 0 | 0.0 | 1.6 | 0.00 | 0.00 | 0.00 | 50 | 1015.0 |
| 20260901043045 | 15 | 0 | 0.0 | 3.2 | 0.00 | 0.00 | 0.00 | 50 | 1015.0 |
| 20260901041543 | 15 | 0 | 1.6 | 4.8 | 0.00 | 0.00 | 0.00 | 50 | 1015.1 |
| 20260901040044 | 15 | 60 | 3.2 | 8.0 | 0.00 | 0.00 | 0.00 | 50 | 1015.0 |
| 20260901034546 | 15 | 62 | 4.8 | 8.0 | 0.00 | 0.00 | 0.00 | 49 | 1014.7 |
| 20260901033048 | 16 | 40 | 4.8 | 6.4 | 0.00 | 0.00 | 0.00 | 46 | 1014.5 |
| 20260901031546 | 16 | 73 | 3.2 | 8.0 | 0.00 | 0.00 | 0.00 | 44 | 1014.4 |
| 20260901030045 | 17 | 104 | 1.6 | 8.0 | 0.00 | 0.00 | 0.00 | 42 | 1014.4 |
| 20260901024546 | 19 | 95 | 3.2 | 8.0 | 0.00 | 0.00 | 0.00 | 38 | 1014.2 |
| 20260901023044 | 20 | 105 | 3.2 | 11.3 | 0.00 | 0.00 | 0.00 | 36 | 1014.3 |
| 20260901021544 | 21 | 130 | 1.6 | 11.3 | 0.00 | 0.00 | 0.00 | 34 | 1014.1 |
| 20260901020043 | 21 | 175 | 3.2 | 9.7 | 0.00 | 0.00 | 0.00 | 32 | 1014.3 |
| 20260901014548 | 22 | 168 | 1.6 | 6.4 | 0.00 | 0.00 | 0.00 | 30 | 1014.3 |
| 20260901013043 | 23 | 0 | 1.6 | 3.2 | 0.00 | 0.00 | 0.00 | 29 | 1014.3 |
| 20260901011544 | 22 | 251 | 1.6 | 8.0 | 0.00 | 0.00 | 0.00 | 29 | 1014.4 |
| 20260901010047 | 23 | 245 | 3.2 | 11.3 | 0.00 | 0.00 | 0.00 | 29 | 1014.6 |
| 20260901004546 | 23 | 253 | 6.4 | 16.1 | 0.00 | 0.00 | 0.00 | 29 | 1014.7 |
| 20260901003042 | 22 | 239 | 8.0 | 14.5 | 0.00 | 0.00 | 0.00 | 29 | 1014.7 |
| 20260901001544 | 22 | 268 | 9.7 | 17.7 | 0.00 | 0.00 | 0.00 | 29 | 1014.7 |
| 20260901000045 | 23 | 270 | 9.7 | 17.7 | 0.00 | 0.00 | 0.00 | 30 | 1014.7 |
| 20260831234552 | 22 | 210 | 4.8 | 22.5 | 0.00 | 0.00 | 0.00 | 30 | 1014.7 |
| 20260831233047 | 22 | 323 | 4.8 | 17.7 | 0.00 | 0.00 | 0.00 | 31 | 1014.8 |
| 20260831231542 | 23 | 236 | 16.1 | 22.5 | 0.00 | 0.00 | 0.00 | 31 | 1014.8 |
| 20260831230043 | 22 | 291 | 6.4 | 22.5 | 0.00 | 0.00 | 0.00 | 32 | 1015.0 |
| 20260831224546 | 23 | 237 | 12.9 | 22.5 | 0.00 | 0.00 | 0.00 | 32 | 1014.9 |
| 20260831223052 | 22 | 0 | 3.2 | 16.1 | 0.00 | 0.00 | 0.00 | 33 | 1015.0 |
| 20260831221543 | 22 | 283 | 12.9 | 25.7 | 0.00 | 0.00 | 0.00 | 33 | 1015.0 |
| 20260831220042 | 22 | 258 | 3.2 | 17.7 | 0.00 | 0.00 | 0.00 | 35 | 1015.1 |
| 20260831214557 | 22 | 309 | 8.0 | 22.5 | 0.00 | 0.00 | 0.00 | 35 | 1015.2 |
| 20260831213043 | 22 | 223 | 12.9 | 29.0 | 0.00 | 0.00 | 0.00 | 34 | 1015.4 |